sat.trackr.live / text

‹ back to catalog

STARLINK-4005

NORAD 52686 · 2022-053AG

PAYLOAD ACTIVE UNKNOWN

§ Identity

Operator
Country
US
Launch date
2022-05-18
Launch site
AFETR
Launch vehicle
Mass (kg)
RCS (m²)

Purposes: comms

External: N2YO · Heavens-Above · Gunter

§ Orbital elements

Epoch: 2026-09-20T04:00:03.000096Z

Period
94.19 min
Inclination
53.1599°
Eccentricity
0.0001363
Mean motion
15.28744201 rev/d
Perigee alt
478.6 km
Apogee alt
480.5 km
Semi-major
6,857.7 km
B*
3.0962e-3
RAAN
348.7027°
Arg perigee
101.9632°
Mean anomaly
127.9896°
Rev number
583

§ Raw data

STARLINK-40051 52686U 22053AG  26263.16670139  .00088377  00000+0  30962-2 0  99952 52686  53.1599 348.7027 0001363 101.9632 127.9896 15.28744201  5839

JSON: /api/v1/satellites/52686 · /tle

For live sub-satellite position, see the globe view (requires WebGL).

§ Visibility from observer

Set your observer location to see the next 7 days of passes ≥ 10°. The values pass through the URL so the page stays shareable.

No JS? Fill the form by hand. The geolocation button needs JavaScript.